Location: Wald
(31.7579°N, 86.6655°W)
Time: 12:16:33
(UTC+00:00)

Sakura Rocket - Pass Details

Date: 14 July 2020
Orbit: 476 x 1743 km, 28.7° (Epoch: 08 August)

Event Time Altitude Azimuth Distance (km) Brightness Sun altitude
Exits shadow 09:06:08 27° 254° (WSW) 1,933 5.0 -19.4°
Maximum altitude 09:10:22 72° 176° (S) 1,295 4.5 -18.7°
Drops below altitude 10° 09:19:47 10° 95° (E) 3,704 7.6 -17.2°
Sets 09:23:20 0° 93° (E) 4,825 8.4 -16.6°
